Printer-friendly version

IAU Minor Planet Center

Minor Planet Center

MPEC 2008-C73 : 2008 CC71

The following Minor Planet Electronic Circular may be linked-to from your own Web pages, but must not otherwise be redistributed electronically.


Read MPEC 2008-C72 Read MPEC 2008-C74


M.P.E.C. 2008-C73                                Issued 2008 Feb. 11, 16:45 UT

     The Minor Planet Electronic Circulars contain information on unusual
         minor planets and routine data on comets.  They are published
   on behalf of Commission 20 of the International Astronomical Union by the
          Minor Planet Center, Smithsonian Astrophysical Observatory,
                          Cambridge, MA 02138, U.S.A.

             Prepared using the Tamkin Foundation Computer Network

                              MPC@CFA.HARVARD.EDU
          URL http://www.cfa.harvard.edu/iau/mpc.html  ISSN 1523-6714

                                   2008 CC71

Observations:
     K08C71C* C2008 02 09.39625 11 03 39.20 +14 16 36.1          20.2 V EC073G96
     K08C71C  C2008 02 09.40480 11 03 42.69 +14 16 14.9          19.9 V EC073G96
     K08C71C  C2008 02 09.41326 11 03 45.82 +14 15 53.1          20.7 V EC073G96
     K08C71C  C2008 02 09.42192 11 03 49.24 +14 15 31.3          20.9 V EC073G96
     K08C71C  C2008 02 10.42074 11 11 22.05 +13 30 42.8          19.9 V EC073G96
     K08C71C  C2008 02 10.43473 11 11 28.17 +13 30 02.0          20.2 V EC073G96
     K08C71C  C2008 02 10.44637 11 11 33.28 +13 29 27.5          20.5 V EC073G96
     K08C71C  C2008 02 10.46018 11 11 39.40 +13 28 46.6          19.8 V EC073G96
     K08C71C  C2008 02 11.17929 11 17 40.59 +12 51 21.5                 EC073J95
     K08C71C  C2008 02 11.18389 11 17 42.89 +12 51 06.0                 EC073J95
     K08C71C  C2008 02 11.18851 11 17 45.21 +12 50 50.3          20.1 R EC073J95
     K08C71C 5C2008 02 11.43032 11 19 56.03 +12 38 05.7          20.2 R EC073673
     K08C71C 5C2008 02 11.43380 11 19 57.68 +12 37 55.2                 EC073673
     K08C71C 5C2008 02 11.44315 11 20 02.39 +12 37 22.5                 EC073673
     K08C71C 5C2008 02 11.45056 11 20 06.13 +12 36 57.0                 EC073673

Observer details:
673 Table Mountain Observatory, Wrightwood.  Observer J. Young.  0.61-m f/16
    Cassegrain + CCD.
G96 Mt. Lemmon Survey.  Observers S. M. Larson, R. A. Kowalski.  Measurers
    E. C. Beshore, A. Boattini, G. J. Garradd, A. R. Gibbs, A. D. Grauer,
    R. E. Hill, R. A. Kowalski, S. M. Larson, R. H. McNaught.  1.5-m reflector
    + CCD.
J95 Great Shefford.  Observer P. Birtwhistle.  0.40-m f/6.0 Schmidt-Cassegrain
    + CCD.

Orbital elements:
2008 CC71                                                Earth MOID = 0.0004 AU
Epoch 2007 Oct. 27.0 TT = JDT 2454400.5                 MPC
M 271.85842              (2000.0)            P               Q
n   0.56477087     Peri.  222.22763     -0.93048995     +0.36613580
a   1.4495099      Node   339.24131     -0.32679060     -0.84390219
e   0.3666539      Incl.    1.86481     -0.16551844     -0.39213987
P   1.75           H   24.7           G   0.15           U   8
Residuals in seconds of arc
080209 G96  1.0-  0.1+    080210 G96  0.1-  0.1-    080211 J95  0.3+  0.4-
080209 G96  1.6+  0.4+    080210 G96  0.2-  0.3-    080211 673  0.2+  0.3-
080209 G96  0.6-  0.1-    080210 G96  0.1+  0.2-    080211 673  0.9-  1.0+
080209 G96  0.1+  0.0     080211 J95  0.3-  0.3+    080211 673  0.2+  0.1+
080210 G96  0.1+  0.4-    080211 J95  0.1-  0.0     080211 673  1.0+  0.2-

Ephemeris:
2008 CC71                a,e,i = 1.45, 0.37, 2                   q = 0.9180
Date    TT    R. A. (2000) Decl.     Delta      r     Elong.  Phase     V
2008 02 04    10 34.01   +16 56.6    0.108    1.087   159.3    18.7    21.0
2008 02 06    10 43.27   +16 09.9    0.0971   1.077   159.0    19.2    20.8
2008 02 08    10 54.42   +15 09.8    0.0866   1.067   158.1    20.2    20.5
2008 02 10    11 08.10   +13 51.0    0.0766   1.057   156.6    21.7    20.3
2008 02 12    11 25.25   +12 05.5    0.0670   1.048   154.2    24.2    20.1
2008 02 14    11 47.14   +09 41.4    0.0582   1.038   150.5    28.0    19.8
2008 02 16    12 15.57   +06 21.8    0.0502   1.029   144.9    33.5    19.7
2008 02 18    12 52.68   +01 47.5    0.0436   1.020   136.7    41.6    19.6
2008 02 20    13 40.28   -04 10.3    0.0388   1.012   125.6    52.6    19.6
2008 02 22    14 37.83   -11 00.9    0.0366   1.003   112.0    66.0    19.9
2008 02 24    15 40.20   -17 22.0    0.0373   0.995    97.8    80.1    20.3
2008 02 26    16 39.21   -21 58.3    0.0408   0.987    85.3    92.3    21.0
2008 02 28    17 28.93   -24 40.4    0.0464   0.980    75.7   101.6    21.7
2008 03 01    18 08.16   -26 01.4    0.0535   0.973    68.9   108.2    22.3
2008 03 03    18 38.46   -26 35.6    0.0615   0.966    64.1   112.6    22.9
2008 03 05    19 02.00   -26 44.8    0.0702   0.960    60.9   115.4    23.4

Gareth V. Williams           (C) Copyright 2008 MPC           M.P.E.C. 2008-C73

Read MPEC 2008-C72 Read MPEC 2008-C74


Our Web policy. Index to the CBAT/MPC/ICQ pages.


Valid HTML 4.01!